Regional Weather Roundup
Issued by NWS Wakefield, VA

Home | Current Version | Previous Version | Graphics & Text | Print | Product List | Glossary On
Versions: 1 2 3 4 5 6 7 8 9 10 11 12 13 14 15 16 17 18 19 20 21 22 23 24 25 26 27 28 29 30 31 32 33 34 35 36 37 38 39 40 41 42 43 44 45 46 47 48 49 50
000
ASUS41 KAKQ 290814
RWRAKQ

REGIONAL WEATHER ROUNDUP
NATIONAL WEATHER SERVICE WAKEFIELD VA
400 AM EDT SUN MAR 29 2015

Note: "fair" indicates few or no clouds below 12,000 feet with no
significant weather and/or obstructions to visibility. * = Denotes
station may not report precipitation (e.g., rain,snow,etc.),
thunder or fog.

VAZ042-051-052>054-056-290900-
NORTHERN VIRGINIA

CITY           SKY/WX    TMP DP  RH WIND       PRES   REMARKS
WASH NATIONAL  CLEAR     29   5  36 NW14G23   30.31R WCI  18
DULLES         CLEAR     25   5  42 NW13      30.29S WCI  14
FORT BELVOIR   CLEAR     27   4  38 NW12      30.31R WCI  16
QUANTICO       CLEAR     28   4  35 N8        30.33R
FREDERICKSBRG* FAIR      29   8  42 NW7       30.31R
STAFFORD*      CLEAR     25   5  42 NW8       30.35R
WARRENTON      CLEAR     25  14  62 CALM      30.30S
CULPEPER*      CLEAR     27   7  43 N3        30.31R
MANASSAS*      CLEAR     25  10  54 NW10      30.31S WCI  15
LEESBURG*      CLEAR     27  10  50 NW10      30.30S WCI  17
WINCHESTER     CLEAR     25   1  36 NW13      30.29S WCI  13
FRONT ROYAL*   FAIR      25   5  42 CALM      30.29S
LURAY*         FAIR      25  12  58 N3        30.29R
$$

VAZ048-049-060>072-079>083-290900-
CENTRAL AND SOUTH CENTRAL VIRGINIA

CITY           SKY/WX    TMP DP  RH WIND       PRES   REMARKS
RICHMOND       CLEAR     27  11  51 NW6       30.30R
CHESTERFIELD*  NOT AVBL
PETERSBURG*    CLEAR     28  13  53 N6        30.31R
HANOVER        CLEAR     25  10  53 NW3       30.32R
TAPPAHANNOCK*  CLEAR     28   4  34 NW3       30.30R
QUINTON*       FAIR      27   9  46 NW6       30.30S
CHARLOTTSVILLE CLEAR     28   6  39 MISG      30.29R
GORDONSVILLE*  FAIR      22  14  72 CALM      30.30R
ORANGE*        CLEAR     23  16  74 CALM      30.31S
LOUISA*        CLEAR     19  12  73 CALM      30.28S
BUMPASS*       FAIR      27  10  47 N5        30.30R
FARMVILLE*     CLEAR     26  14  61 CALM      30.29S
CREWE*         FAIR      26  10  51 MISG      30.29S
FORT PICKETT*  FAIR      24  11  57 NW3       30.29S
CHASE CITY*    FAIR      29  13  50 NW3       30.30R
CLARKSVILLE*   FAIR      30  12  47 N6        30.30R
SOUTH HILL*    CLEAR     24  13  63 CALM      30.35S
LAWRENCEVILLE* FAIR      26  12  56 W3        30.29S
EMPORIA*       CLEAR     27  12  54 CALM      30.32S
$$

VAZ088>098-290900-
SOUTHEAST VIRGINIA

CITY           SKY/WX    TMP DP  RH WIND       PRES   REMARKS
NORFOLK        CLEAR     31   8  38 NW12G21   30.27R WCI  22
VIRGINIA BEACH PTCLDY    33  11  39 NW15      30.25S WCI  23
NORFOLK NAVAL  PTCLDY    34   9  35 NW18      30.29R WCI  23
WEST POINT*    CLEAR     31   7  37 NW6       30.31R
SALUDA*        FAIR      30   9  41 NW13G21   30.27S WCI  20
NEWPORT NEWS   NOT AVBL
LANGLEY AFB    CLEAR     30   7  37 NW13G24   30.27R WCI  20
FORT EUSTIS    CLEAR     31  12  45 N13G22    30.27R WCI  21
WILLIAMSBURG*  CLEAR     30  12  47 N7        30.30S
HR EXEC AP*    FAIR      28  12  50 NW3       30.30R
FRANKLIN*      CLEAR     26  14  59 NW3       30.31R
WAKEFIELD      CLEAR     23  16  74 CALM      30.30R
$$

VAZ020-022-025-037-045-290900-
WEST CENTRAL AND SOUTHWEST VIRGINIA

CITY           SKY/WX    TMP DP  RH WIND       PRES   REMARKS
STAUNTON*      CLEAR     23   8  51 CALM      30.29R
WAYNESBORO*    FAIR      22   6  49 W3        30.26R
HOT SPRINGS VA CLEAR     14   6  69 NW15      30.09R WCI  -1
LYNCHBURG      CLEAR     24   8  50 NW3       30.30R
DANVILLE       CLEAR     25  15  66 CALM      30.32R
SOUTH BOSTON*  FAIR      24  13  62 CALM      30.32R
MARTINSVILLE   CLEAR     19  15  82 CALM      30.33S
ROANOKE        CLEAR     26   6  42 NW9       30.32R
BLACKSBURG     CLEAR     21   7  53 W7        30.28S
DUBLIN*        CLEAR     24   8  50 NW5       30.28R
MARION*        CLEAR     23   6  49 W8        30.27S
HILLSVILLE*    CLEAR     22   7  51 NW15      30.21R WCI   9
RICHLANDS*     FAIR      22   4  46 CALM      30.26S
WISE*          CLEAR     23   9  54 CALM      30.27S
ABINGDON*      CLEAR     27   8  44 CALM      30.30R
$$

MDZ021>025-VAZ099-100-290900-
SOUTHERN MARYLAND AND THE DELMARVA PENINSULA

CITY           SKY/WX    TMP DP  RH WIND       PRES   REMARKS
PATUXENT RIVER FAIR      29   5  36 N20       30.27R WCI  16
BAY BRIDGE APT   N/A     30   9  40 NW13      30.27R WCI  20
LEONARDTOWN    FAIR      28   3  34 NW7       30.28S
DOVER          CLEAR     26   7  46 NW13      30.22R WCI  14
GEORGETOWN     CLEAR     27   5  39 NW6       30.23R
EASTON         CLEAR     30   7  37 N13G21    30.29R WCI  20
CAMBRIDGE      MOCLDY    32   9  37 N16       30.25R WCI  21
SALISBURY      CLEAR     27  12  53 NW12      30.23R WCI  17
OCEAN CITY     CLEAR     26  14  60 NW6       30.22R
WALLOPS ISLAND CLEAR     28  12  51 N9        30.23S
ACCOMACK*      CLEAR     32  10  40 NW14G23   30.24R WCI  22
$$

NCZ012>017-030>032-290900-
NORTH CENTRAL AND EASTERN NORTH CAROLINA

CITY           SKY/WX    TMP DP  RH WIND       PRES   REMARKS
ROANOKE RAPIDS FAIR      28  12  50 NW3       30.30S
RALEIGH        CLEAR     28  12  51 CALM      30.31S
ELIZABETH CITY CLEAR     29  15  56 NW9       30.28R
AHOSKIE*       CLEAR     27  15  60 CALM      30.31R
EDENTON*       CLEAR     28  17  65 NW3       30.29S
CURRITUCK*     CLEAR     31   9  38 NW7       30.28S
KILL DEVIL HLS CLEAR     32   7  35 NW14G21   30.25S WCI  22
MANTEO         CLEAR     32  10  39 N18G30    30.27R WCI  20
CAPE HATTERAS  CLEAR     33  15  47 N10G22    30.25S WCI  25
TARBORO*       FAIR      26  21  83 CALM      30.32S
GOLDSBORO      CLEAR     31  22  70 N5        30.29S
WASHINGTON     CLEAR     28  17  61 CALM      30.30S
GREENVILLE     CLEAR     28  21  74 CALM      30.32R
NEW BERN       CLEAR     32  14  47 N7        30.31R
WILMINGTON     CLEAR     33  18  53 N8        30.30R
$$

VAZ048-290900-
ELSEWHERE

CITY           SKY/WX    TMP DP  RH WIND       PRES   REMARKS
HARRISBURG PA  CLEAR     25   7  46 NW13      30.25R WCI  14
BALTIMORE      CLEAR     25   4  40 W8        30.27R
ANNAPOLIS      CLEAR     30  10  43 NW13      30.27R WCI  20
ANDREWS AFB    CLEAR     26   3  36 NW17      30.27R WCI  13
PHILADELPHIA   MOCLDY    27   5  39 NW13      30.22R WCI  16
HENDERSON NC   CLEAR     26  12  54 NW3       30.30R
GREENSBORO     CLEAR     28   8  43 N6        30.29S
ROCKY MOUNT    CLEAR     29  15  56 N6        30.31S
$$

VAZ100-290900-
MARINE

STATION/POSITION TIME  TEMP    WIND        PRES    WAVE   SWELL
                       AIR SEA DIR/SP/G            HT/PER HT/PER
                 (UTC) (F)     (DEG/KT/KT) (MB)    (FT/S) (FT/S)
15NM E FENWICK I 0750   31 39              1021.6R   5/ 5
THOMAS POINT MD  0800                        N/A
STINGRAY PT      0800   31 44  330/ 17/ 19   N/A     2/ 3
CHESAPEAKE LGHT  0700   33     330/ 23/ 26 1024.4F
CAPE HENRY BUOY  0728      40                N/A     5/ 4
1ST LANDING BUOY 0800   34     330/ 19/ 25 1024.2R   3/ 3
OFFSHORE WE BUOY 0711      41                N/A     5/ 5   2/ 9
64NM E OF VA BCH 0750   36 55  330/ 19/ 25 1022.2F   6/ 6   2/ 9
44056 DUCK FRF   0711      42                N/A     5/ 6
CAPE LOOKOUT NC  0800   36     360/ 15/ 18 1024.6R
$$


USA.gov is the U.S. government's official web portal to all federal, state and local government web resources and services.